TimeMST,TemperatureF,Dew PointF,Humidity,Sea Level PressureIn,VisibilityMPH,Wind Direction,Wind SpeedMPH,Gust SpeedMPH,PrecipitationIn,Events,Conditions,WindDirDegrees,DateUTC
12:55 AM,71.6,55.4,57,29.95,10.0,South,13.8,-,N/A,,Overcast,180,2013-08-15 07:55:00
1:55 AM,71.6,53.6,53,29.92,10.0,South,9.2,-,N/A,,Mostly Cloudy,180,2013-08-15 08:55:00
2:55 AM,69.8,57.2,64,29.96,10.0,NE,4.6,-,N/A,,Overcast,40,2013-08-15 09:55:00
3:55 AM,69.8,57.2,64,29.99,10.0,Calm,Calm,-,N/A,,Overcast,0,2013-08-15 10:55:00
4:55 AM,69.8,60.8,73,30.00,10.0,Calm,Calm,-,N/A,,Mostly Cloudy,0,2013-08-15 11:55:00
8:55 AM,78.8,57.2,47,30.02,10.0,NNE,9.2,-,N/A,,Mostly Cloudy,30,2013-08-15 15:55:00
9:55 AM,82.4,55.4,39,30.02,10.0,Calm,Calm,-,N/A,,Mostly Cloudy,0,2013-08-15 16:55:00
10:55 AM,86.0,55.4,35,30.01,10.0,ESE,8.1,-,N/A,,Mostly Cloudy,120,2013-08-15 17:55:00
11:55 AM,87.8,51.8,29,29.99,10.0,SE,9.2,-,N/A,,Scattered Clouds,140,2013-08-15 18:55:00
12:55 PM,89.6,51.8,27,29.96,10.0,East,11.5,17.3,N/A,,Scattered Clouds,100,2013-08-15 19:55:00
1:55 PM,91.4,50.0,24,29.96,10.0,East,8.1,-,N/A,,Scattered Clouds,90,2013-08-15 20:55:00
2:55 PM,91.4,48.2,23,29.93,10.0,Variable,5.8,-,N/A,,Scattered Clouds,0,2013-08-15 21:55:00
4:56 PM,91.0,48.9,23,29.91,10.0,NE,5.8,-,N/A,,Mostly Cloudy,50,2013-08-15 23:56:00
5:56 PM,89.1,48.9,25,29.91,10.0,NNE,3.5,-,N/A,,Clear,20,2013-08-16 00:56:00
6:56 PM,88.0,51.1,28,29.93,10.0,Calm,Calm,-,N/A,,Scattered Clouds,0,2013-08-16 01:56:00
7:15 PM,87.8,51.8,29,30.13,10.0,Calm,Calm,-,N/A,Thunderstorm,Thunderstorm,0,2013-08-16 02:15:00
7:39 PM,80.6,55.4,42,30.15,10.0,NE,18.4,34.5,0.00,Rain-Thunderstorm,Light Thunderstorms and Rain,50,2013-08-16 02:39:00
7:48 PM,71.6,60.8,69,30.16,1.8,SE,31.1,43.7,0.17,Rain-Thunderstorm,Heavy Thunderstorms and Rain,130,2013-08-16 02:48:00
7:51 PM,71.6,59.0,64,30.17,1.0,SE,20.7,43.7,0.29,Rain-Thunderstorm,Heavy Thunderstorms and Rain,130,2013-08-16 02:51:00
7:56 PM,73.0,57.0,57,29.99,1.0,East,20.7,36.8,0.37,Rain-Thunderstorm,Heavy Thunderstorms and Rain,100,2013-08-16 02:56:00
7:58 PM,73.4,55.4,53,30.17,1.5,ESE,18.4,34.5,0.02,Rain-Thunderstorm,Heavy Thunderstorms and Rain,110,2013-08-16 02:58:00
8:00 PM,73.4,55.4,53,30.17,2.0,East,16.1,33.4,0.04,Rain-Thunderstorm,Heavy Thunderstorms and Rain,100,2013-08-16 03:00:00
8:02 PM,75.2,55.4,50,30.17,3.0,ENE,11.5,33.4,0.05,Rain-Thunderstorm,Heavy Thunderstorms and Rain,70,2013-08-16 03:02:00
8:35 PM,77.0,60.8,57,30.16,10.0,SW,12.7,-,0.10,,Partly Cloudy,220,2013-08-16 03:35:00
8:56 PM,75.0,60.1,60,29.97,10.0,SW,13.8,-,0.10,,Clear,220,2013-08-16 03:56:00
9:56 PM,73.9,62.1,66,29.98,10.0,Calm,Calm,-,N/A,,Clear,0,2013-08-16 04:56:00
10:55 PM,73.4,62.6,69,29.97,10.0,Calm,Calm,-,N/A,,Partly Cloudy,0,2013-08-16 05:55:00
11:55 PM,77.0,57.2,50,29.96,10.0,South,9.2,-,N/A,,Partly Cloudy,180,2013-08-16 06:55:00